Location: Madrid
(40.4000°N, 3.6830°W)
Time: 19:06:07
(UTC+01:00)

Envisat - Visible Passes

Search period start: 21 January 2021 00:00
Search period end: 31 January 2021 00:00
Orbit: 764 x 766 km, 98.1° (Epoch: 21 January)

Date Brightness Start Highest point End Pass type
(mag) Time Alt. Az. Time Alt. Az. Time Alt. Az.
21 Jan 4.5 06:26:36 10° NNE 06:31:19 37° E 06:36:01 10° SSE visible
21 Jan 5.9 19:21:00 10° SW 19:24:38 20° W 19:28:17 10° NW visible
22 Jan 5.8 05:50:59 10° NE 05:54:13 17° E 05:57:28 10° SE visible
22 Jan 3.1 07:28:37 10° N 07:33:34 55° WNW 07:38:30 10° SSW visible
23 Jan 3.3 06:51:44 10° NNE 06:56:49 67° ESE 07:01:51 10° S visible
23 Jan 6.5 19:49:18 10° W 19:50:20 11° W 19:51:20 10° WNW visible
24 Jan 4.9 06:15:25 10° NE 06:19:51 29° E 06:24:15 10° SSE visible
24 Jan 3.7 07:54:21 10° N 07:58:49 32° WNW 08:03:15 10° SW visible
24 Jan 5.6 19:09:00 10° SSW 19:13:07 25° W 19:17:16 10° NW visible
25 Jan 6.1 05:40:23 10° ENE 05:42:42 13° E 05:45:00 10° ESE visible
25 Jan 2.9 07:17:08 10° N 07:22:12 70° WNW 07:27:14 10° SSW visible
26 Jan 3.8 06:40:24 10° NNE 06:45:23 52° E 06:50:19 10° S visible
26 Jan 6.2 19:36:11 10° WSW 19:38:46 14° W 19:41:23 10° WNW visible
27 Jan 5.3 06:04:20 10° NE 06:08:23 23° E 06:12:22 10° SSE visible
27 Jan 3.4 07:42:46 10° N 07:47:29 40° WNW 07:52:11 10° SW visible
27 Jan 5.2 18:57:09 10° SSW 19:01:38 31° W 19:06:09 10° NNW visible
28 Jan 3.0 07:05:41 10° NNE 07:10:48 88° WNW 07:15:53 10° SSW visible
29 Jan 4.3 06:29:08 10° NNE 06:33:55 41° E 06:38:41 10° SSE visible
29 Jan 6.0 19:23:50 10° SW 19:27:15 18° W 19:30:40 10° NW visible
30 Jan 5.7 05:53:22 10° NE 05:56:51 18° E 06:00:19 10° SE visible
30 Jan 3.2 07:31:14 10° N 07:36:08 50° WNW 07:41:01 10° SW visible
